period_start,C,m1,H,J0,J1,J2,J3,J4,J5,JA,JB,JC,JD,JJ,JK,JN,#
2017-04-08 00:04:11,0.12,6.31,0.00,23.21,27.01,30.85,14.57,48.87,1014.98,2027.31,1794.76,1811.49,2074.31,600.17,594.66,40.15,0000 0000 0000 0000 000000
2017-04-08 00:09:12,0.11,6.31,0.00,23.26,27.03,30.89,14.46,48.92,1015.07,2027.19,1793.54,1810.74,2073.41,599.77,594.34,40.20,0000 0000 0000 0000 000000
2017-04-08 00:14:13,0.10,6.32,0.00,23.32,27.06,30.87,14.52,48.88,1014.98,2027.06,1792.38,1809.89,2072.42,599.90,594.41,40.26,0000 0000 0000 0000 000000
2017-04-08 00:19:14,0.13,6.33,0.00,23.38,27.08,30.89,14.55,48.81,1015.03,2027.06,1791.10,1809.02,2071.43,600.08,594.49,40.31,0000 0000 0000 0000 000000
2017-04-08 00:24:15,0.13,6.33,0.00,23.48,27.10,30.87,14.53,48.73,1015.07,2027.00,1789.90,1808.13,2070.45,600.04,594.23,40.36,0000 0000 0000 0000 000000
2017-04-08 00:29:17,0.15,6.34,0.00,23.52,27.13,30.89,14.47,48.80,1015.12,2027.00,1788.69,1807.34,2069.49,599.97,594.07,40.41,0000 0000 0000 0000 000000
2017-04-08 00:34:18,0.12,6.35,0.00,23.55,27.16,30.88,14.52,48.85,1015.14,2027.00,1787.62,1806.61,2068.57,600.09,594.15,40.46,0000 0000 0000 0000 000000
2017-04-08 00:39:19,0.12,6.35,0.00,23.60,27.18,30.92,14.42,48.84,1015.12,2027.00,1786.42,1805.78,2067.63,599.99,593.98,40.51,0000 0000 0000 0000 000000
2017-04-08 00:44:20,0.12,6.36,0.00,23.67,27.21,30.92,14.52,48.83,1015.10,2027.00,1785.11,1804.94,2066.65,600.12,593.89,40.56,0000 0000 0000 0000 000000
2017-04-08 00:49:22,0.12,6.37,0.00,23.71,27.25,30.95,14.49,48.94,1015.09,2026.98,1783.96,1804.09,2065.76,599.88,593.67,40.61,0000 0000 0000 0000 000000
2017-04-08 00:54:23,0.14,6.37,0.00,23.75,27.28,30.98,14.47,48.93,1015.10,2026.95,1782.80,1803.23,2064.79,599.83,593.60,40.66,0000 0000 0000 0000 000000
2017-04-08 00:59:24,0.09,6.38,0.00,23.81,27.31,31.04,14.41,48.79,1015.11,2026.61,1781.61,1802.48,2063.77,599.77,593.28,40.71,0000 0000 0000 0000 000000
2017-04-08 01:04:25,0.08,6.38,0.00,23.82,27.35,31.04,14.50,48.88,1015.15,2026.25,1780.29,1801.66,2062.82,600.02,593.58,40.76,0000 0000 0000 0000 000000
2017-04-08 01:09:27,0.08,6.39,0.00,23.89,27.39,31.06,14.42,48.83,1015.15,2026.06,1779.18,1800.87,2061.88,599.75,593.32,40.81,0000 0000 0000 0000 000000
2017-04-08 01:14:28,0.12,6.40,0.00,24.39,27.43,31.10,14.39,48.75,1015.15,2026.01,1778.03,1799.98,2060.89,600.03,592.42,40.86,0000 0000 0000 0000 000000
2017-04-08 01:19:29,0.14,6.40,0.00,24.35,27.48,31.05,14.46,48.95,1015.15,2026.00,1776.88,1799.06,2059.85,600.23,592.69,40.91,0000 0000 0000 0000 000000
2017-04-08 01:24:31,0.16,6.41,0.00,24.12,27.53,31.06,14.44,48.98,1015.16,2025.97,1775.55,1798.14,2058.74,599.84,592.86,40.96,0000 0000 0000 0000 000000
2017-04-08 01:29:32,0.07,6.42,0.00,24.33,27.56,31.14,14.45,48.88,1015.15,2025.61,1774.37,1797.20,2057.76,600.14,592.66,41.01,0000 0000 0000 0000 000000
2017-04-08 01:34:34,0.10,6.42,0.00,24.28,27.60,31.23,14.50,48.88,1015.17,2025.24,1773.15,1796.43,2056.79,599.96,592.51,41.06,0000 0000 0000 0000 000000
2017-04-08 01:39:35,0.10,6.42,0.00,24.19,27.62,31.34,14.48,48.82,1015.17,2025.07,1771.97,1795.68,2055.87,600.05,592.85,41.11,0000 0000 0000 0000 000000
2017-04-08 01:44:36,0.12,6.43,0.00,24.16,27.64,31.23,14.45,48.99,1015.16,2025.04,1770.74,1794.91,2054.97,600.00,592.85,41.16,0000 0000 0000 0000 000000
2017-04-08 01:49:37,0.13,6.44,0.00,24.15,27.65,31.20,14.45,48.93,1015.16,2025.02,1769.51,1794.07,2054.05,600.24,593.10,41.22,0000 0000 0000 0000 000000
2017-04-08 01:54:39,0.13,6.44,0.00,24.15,27.66,31.22,14.55,49.03,1015.16,2025.01,1768.50,1793.29,2053.15,600.44,593.29,41.27,0000 0000 0000 0000 000000
2017-04-08 01:59:40,0.12,6.45,0.00,24.17,27.67,31.21,14.46,48.94,1015.16,2025.00,1767.36,1792.59,2052.26,599.97,592.89,41.32,0000 0000 0000 0000 000000
2017-04-08 02:04:41,0.10,6.46,0.00,24.20,27.68,31.24,14.43,48.94,1015.16,2025.00,1766.25,1791.97,2051.42,600.02,592.67,41.37,0000 0000 0000 0000 000000
2017-04-08 02:09:42,0.12,6.46,0.00,24.52,27.70,31.13,14.45,48.98,1015.16,2025.00,1765.15,1791.15,2050.56,600.16,592.22,41.42,0000 0000 0000 0000 000000
2017-04-08 02:14:43,0.13,6.47,0.00,24.73,27.72,31.06,14.39,48.88,1015.17,2025.00,1764.02,1790.42,2049.64,600.21,591.99,41.47,0000 0000 0000 0000 000000
2017-04-08 02:19:44,0.16,6.47,0.00,24.39,27.75,31.03,14.42,48.94,1015.18,2024.98,1762.67,1789.54,2048.62,599.90,592.31,41.52,0000 0000 0000 0000 000000
2017-04-08 02:24:46,0.10,6.48,0.00,24.37,27.76,31.12,14.46,49.04,1015.17,2024.92,1761.55,1788.79,2047.59,600.03,592.57,41.57,0000 0000 0000 0000 000000
2017-04-08 02:29:47,0.09,6.49,0.00,24.59,27.79,31.22,14.44,49.06,1015.17,2024.85,1760.44,1788.00,2046.98,600.19,592.08,41.62,0000 0000 0000 0000 000000
2017-04-08 02:34:48,0.10,6.49,0.00,24.53,27.80,31.32,14.43,48.92,1015.17,2024.67,1759.37,1787.12,2046.12,600.29,592.39,41.67,0000 0000 0000 0000 000000
2017-04-08 02:39:49,0.11,6.50,0.00,24.52,27.82,31.29,14.42,48.84,1015.18,2024.53,1758.15,1786.47,2045.28,600.16,592.34,41.72,0000 0000 0000 0000 000000
2017-04-08 02:44:51,0.10,6.51,0.00,24.54,27.82,31.25,14.41,49.02,1015.17,2024.44,1757.01,1785.82,2044.40,599.92,591.98,41.77,0000 0000 0000 0000 000000
2017-04-08 02:49:52,0.08,6.51,0.00,24.65,27.83,31.26,14.39,49.07,1015.16,2024.22,1755.98,1785.01,2043.60,600.26,592.10,41.82,0000 0000 0000 0000 000000
2017-04-08 02:54:53,0.13,6.52,0.00,25.01,27.85,31.11,14.31,48.97,1015.17,2024.08,1754.85,1784.16,2042.69,600.21,591.48,41.87,0000 0000 0000 0000 000000
2017-04-08 02:59:54,0.12,6.52,0.00,24.68,27.87,31.02,14.42,48.95,1015.18,2024.03,1753.71,1783.44,2041.80,600.09,591.86,41.92,0000 0000 0000 0000 000000
2017-04-08 03:04:56,0.11,6.53,0.00,24.48,27.87,31.08,14.47,49.11,1015.18,2024.01,1752.57,1782.72,2040.88,600.25,592.40,41.97,0000 0000 0000 0000 000000
2017-04-08 03:09:57,0.11,6.54,0.00,24.72,27.89,31.20,14.46,49.10,1015.18,2024.01,1751.24,1781.99,2040.01,600.11,591.81,42.03,0000 0000 0000 0000 000000
2017-04-08 03:14:58,0.13,6.54,0.00,24.86,27.90,31.24,14.45,49.02,1015.18,2024.01,1750.34,1781.16,2039.16,600.40,591.84,42.08,0000 0000 0000 0000 000000
2017-04-08 03:20:00,0.13,6.55,0.00,24.98,27.92,31.23,14.42,49.12,1015.18,2024.00,1749.28,1780.39,2038.19,600.14,591.38,42.13,0000 0000 0000 0000 000000
2017-04-08 03:25:01,0.12,6.55,0.00,24.87,27.92,31.09,14.36,49.02,1015.20,2024.00,1748.24,1779.66,2037.38,599.76,591.27,42.18,0000 0000 0000 0000 000000
2017-04-08 03:30:02,0.17,6.56,0.00,24.74,27.93,31.10,14.33,49.17,1015.25,2024.00,1746.76,1778.74,2036.36,599.98,591.72,42.23,0000 0000 0000 0000 000000
2017-04-08 03:35:03,0.18,6.57,0.00,24.94,27.94,31.13,14.41,49.08,1015.23,2024.00,1745.39,1777.61,2035.05,600.08,591.44,42.28,0000 0000 0000 0000 000000
2017-04-08 03:40:05,0.23,6.58,0.00,25.05,27.95,31.09,14.41,49.02,1015.31,2024.00,1743.33,1776.07,2033.26,599.82,591.04,42.33,0000 0000 0000 0000 000000
2017-04-08 03:45:06,0.27,6.59,0.00,25.08,27.95,31.00,14.40,49.00,1015.28,2023.99,1741.20,1774.54,2031.52,600.35,591.32,42.38,0000 0000 0000 0000 000000
2017-04-08 03:50:07,0.20,6.61,0.00,25.10,27.94,30.94,14.37,48.92,1015.26,2023.98,1739.50,1773.27,2029.87,599.81,590.86,42.43,0000 0000 0000 0000 000000
2017-04-08 03:55:08,0.15,6.61,0.00,25.09,27.93,30.90,14.30,48.98,1015.25,2023.98,1738.10,1772.20,2028.72,600.03,591.14,42.48,0000 0000 0000 0000 000000
2017-04-08 04:00:10,0.17,6.62,0.00,25.07,27.92,30.90,14.34,49.04,1015.26,2023.98,1736.59,1771.11,2027.48,599.78,590.88,42.53,0000 0000 0000 0000 000000
2017-04-08 04:05:11,0.14,6.63,0.00,25.10,27.90,30.88,14.32,48.90,1015.46,2023.96,1735.35,1770.13,2026.39,599.78,590.97,42.58,0000 0000 0000 0000 000000
2017-04-08 04:10:12,0.13,6.64,0.00,25.15,27.89,30.87,14.35,48.92,1015.53,2023.95,1734.13,1769.29,2025.49,600.02,591.07,42.63,0000 0000 0000 0000 000000
2017-04-08 04:15:14,0.10,6.64,0.00,25.18,27.87,30.87,14.25,48.83,1015.46,2023.98,1733.02,1768.74,2024.64,599.72,590.61,42.68,0000 0000 0000 0000 000000
2017-04-08 04:20:15,0.09,6.65,0.00,25.04,27.85,30.79,14.35,48.98,1015.39,2023.98,1731.97,1768.01,2023.92,600.26,591.52,42.73,0000 0000 0000 0000 000000
2017-04-08 04:25:16,0.15,6.66,0.00,24.90,27.82,30.81,14.47,48.95,1015.43,2023.99,1730.85,1767.29,2023.06,600.39,591.97,42.78,0000 0000 0000 0000 000000
2017-04-08 04:30:17,0.14,6.66,0.00,25.03,27.80,30.81,14.37,48.77,1015.50,2023.99,1729.64,1766.58,2022.12,600.07,591.39,42.83,0000 0000 0000 0000 000000
2017-04-08 04:35:19,0.16,6.67,0.00,25.08,27.77,30.75,14.40,48.82,1015.55,2023.99,1728.03,1765.52,2020.98,599.84,591.09,42.88,0000 0000 0000 0000 000000
2017-04-08 04:40:20,0.12,6.68,0.00,25.02,27.75,30.74,14.28,48.77,1015.56,2023.99,1726.98,1764.70,2019.98,600.00,591.37,42.93,0000 0000 0000 0000 000000
2017-04-08 04:45:21,0.11,6.69,0.00,25.04,27.72,30.70,14.37,48.75,1015.60,2024.00,1725.97,1763.92,2019.03,599.84,591.24,42.99,0000 0000 0000 0000 000000
2017-04-08 04:50:22,0.15,6.69,0.00,25.03,27.70,30.68,14.34,48.77,1015.60,2024.01,1724.85,1763.07,2018.10,599.67,590.91,43.04,0000 0000 0000 0000 000000
2017-04-08 04:55:24,0.16,6.70,0.00,24.96,27.67,30.69,14.32,48.92,1015.63,2024.08,1723.73,1762.38,2017.28,599.92,591.44,43.09,0000 0000 0000 0000 000000
2017-04-08 05:00:25,0.17,6.71,0.00,25.09,27.65,30.69,14.39,48.84,1015.64,2024.19,1722.35,1761.46,2016.28,600.21,591.45,43.14,0000 0000 0000 0000 000000
2017-04-08 05:05:26,0.17,6.72,0.00,25.10,27.63,30.61,14.28,48.88,1015.64,2024.47,1721.09,1760.67,2015.32,599.71,590.98,43.19,0000 0000 0000 0000 000000
2017-04-08 05:10:27,0.16,6.73,0.00,24.94,27.60,30.59,14.41,48.99,1015.64,2024.82,1719.95,1760.00,2014.27,600.15,591.74,43.24,0000 0000 0000 0000 000000
2017-04-08 05:15:29,0.15,6.73,0.00,24.91,27.58,30.60,14.41,48.93,1015.64,2024.97,1718.78,1759.21,2013.52,600.07,591.66,43.29,0000 0000 0000 0000 000000
2017-04-08 05:20:30,0.14,6.74,0.00,25.07,27.56,30.55,14.37,48.85,1015.64,2024.98,1717.65,1758.39,2012.72,600.00,591.35,43.34,0000 0000 0000 0000 000000
2017-04-08 05:25:31,0.11,6.75,0.00,25.09,27.54,30.53,14.43,48.83,1015.64,2024.99,1716.49,1757.80,2011.87,600.29,591.37,43.39,0000 0000 0000 0000 000000
2017-04-08 05:30:33,0.13,6.75,0.00,24.81,27.51,30.53,14.38,48.92,1015.64,2024.99,1715.20,1756.98,2010.94,600.16,591.95,43.44,0000 0000 0000 0000 000000
2017-04-08 05:35:34,0.15,6.76,0.00,24.73,27.49,30.52,14.32,48.83,1015.64,2025.00,1713.85,1756.10,2010.01,599.77,591.78,43.49,0000 0000 0000 0000 000000
2017-04-08 05:40:35,0.12,6.77,0.00,24.93,27.47,30.55,14.25,48.77,1015.64,2025.01,1712.83,1755.52,2009.13,599.81,591.36,43.54,0000 0000 0000 0000 000000
2017-04-08 05:45:37,0.09,6.77,0.00,25.09,27.45,30.54,14.33,48.71,1015.65,2025.03,1711.92,1754.93,2008.42,599.91,591.22,43.59,0000 0000 0000 0000 000000
2017-04-08 05:50:38,0.14,6.78,0.00,25.17,27.45,30.51,14.30,48.60,1015.64,2025.03,1710.79,1754.08,2007.64,600.07,591.09,43.64,0000 0000 0000 0000 000000
2017-04-08 05:55:39,0.15,6.79,0.00,24.88,27.42,30.50,14.32,48.81,1015.65,2025.05,1709.59,1753.35,2006.71,599.77,591.59,43.69,0000 0000 0000 0000 000000
2017-04-08 06:00:40,0.14,6.80,0.00,24.70,27.41,30.47,14.37,48.88,1015.66,2025.20,1708.42,1752.66,2005.83,599.97,592.05,43.74,0000 0000 0000 0000 000000
2017-04-08 06:05:42,0.17,6.81,0.00,24.85,27.40,30.47,14.36,48.85,1015.65,2025.63,1707.29,1751.97,2005.00,600.14,591.97,43.79,0000 0000 0000 0000 000000
2017-04-08 06:10:43,0.15,6.81,0.00,25.07,27.40,30.50,14.32,48.85,1015.70,2025.85,1706.27,1751.13,2004.14,599.95,591.25,43.84,0000 0000 0000 0000 000000
2017-04-08 06:15:44,0.15,6.82,0.00,25.06,27.39,30.55,14.32,48.78,1015.79,2025.93,1705.20,1750.38,2003.22,599.75,591.20,43.90,0000 0000 0000 0000 000000
2017-04-08 06:20:46,0.14,6.83,0.00,24.81,27.37,30.51,14.47,48.81,1015.99,2025.97,1703.93,1749.58,2002.28,600.39,592.27,43.95,0000 0000 0000 0000 000000
2017-04-08 06:25:47,0.14,6.83,0.00,24.95,27.37,30.49,14.37,48.81,1016.08,2025.96,1702.69,1748.75,2001.32,599.95,591.77,44.00,0000 0000 0000 0000 000000
2017-04-08 06:30:48,0.14,6.84,0.00,25.13,27.35,30.50,14.42,48.84,1016.07,2025.95,1701.44,1747.88,2000.26,600.17,591.53,44.05,0000 0000 0000 0000 000000
2017-04-08 06:35:50,0.16,6.85,0.00,24.98,27.35,30.52,14.32,48.84,1016.10,2025.98,1699.96,1746.95,1999.14,599.83,591.60,44.10,0000 0000 0000 0000 000000
2017-04-08 06:40:51,0.16,6.86,0.00,24.88,27.34,30.50,14.47,48.88,1016.11,2025.98,1698.57,1746.02,1998.08,600.20,592.08,44.15,0000 0000 0000 0000 000000
2017-04-08 06:45:52,0.15,6.87,0.00,25.07,27.32,30.49,14.25,48.70,1016.10,2025.99,1697.36,1745.09,1997.00,599.91,591.52,44.20,0000 0000 0000 0000 000000
2017-04-08 06:50:54,0.16,6.88,0.00,25.13,27.32,30.51,14.34,48.76,1016.10,2025.98,1695.93,1744.15,1995.94,599.98,591.52,44.25,0000 0000 0000 0000 000000
2017-04-08 06:55:55,0.17,6.88,0.00,24.87,27.32,30.48,14.40,48.88,1016.13,2025.98,1694.50,1743.27,1994.82,599.99,592.08,44.30,0000 0000 0000 0000 000000
2017-04-08 07:00:57,0.18,6.89,0.00,24.71,27.31,30.44,14.40,48.90,1016.11,2025.99,1692.91,1742.27,1993.69,600.20,592.58,44.35,0000 0000 0000 0000 000000
2017-04-08 07:05:58,0.15,6.90,0.00,24.94,27.30,30.43,14.27,48.76,1016.07,2025.99,1691.73,1741.34,1992.63,599.77,591.59,44.40,0000 0000 0000 0000 000000
2017-04-08 07:11:00,0.18,6.91,0.00,25.12,27.30,30.45,14.28,48.80,1016.06,2025.99,1690.19,1740.24,1991.37,599.87,591.35,44.45,0000 0000 0000 0000 000000
2017-04-08 07:16:01,0.23,6.92,0.00,24.92,27.30,30.46,14.35,48.92,1016.04,2025.99,1688.41,1738.97,1989.87,600.01,591.68,44.50,0000 0000 0000 0000 000000
2017-04-08 07:21:02,0.33,6.94,0.00,24.72,27.28,30.41,14.48,49.01,1016.12,2025.99,1685.98,1737.21,1987.80,600.21,592.44,44.55,0000 0000 0000 0000 000000
2017-04-08 07:26:03,0.22,6.95,0.00,24.93,27.27,30.43,14.29,48.85,1016.13,2025.99,1684.13,1735.66,1986.13,599.64,591.50,44.60,0000 0000 0000 0000 000000
2017-04-08 07:31:05,0.20,6.96,0.00,25.16,27.27,30.46,14.31,48.77,1016.12,2025.99,1682.61,1734.43,1984.76,599.68,591.07,44.65,0000 0000 0000 0000 000000
2017-04-08 07:36:06,0.17,6.97,0.00,25.09,27.27,30.51,14.31,48.87,1016.12,2025.99,1681.16,1733.47,1983.63,599.86,591.42,44.71,0000 0000 0000 0000 000000
2017-04-08 07:41:07,0.20,6.98,0.00,24.77,27.27,30.43,14.39,48.88,1016.13,2025.99,1679.45,1732.16,1982.27,600.06,592.29,44.76,0000 0000 0000 0000 000000
2017-04-08 07:46:08,0.23,6.99,0.00,24.76,27.25,30.42,14.37,48.98,1016.13,2025.99,1677.67,1730.83,1980.76,600.05,592.22,44.81,0000 0000 0000 0000 000000
2017-04-08 07:51:10,0.16,7.00,0.00,25.05,27.25,30.42,14.23,48.85,1016.13,2025.99,1676.35,1729.82,1979.65,600.00,591.56,44.86,0000 0000 0000 0000 000000
2017-04-08 07:56:11,0.15,7.01,0.00,25.17,27.25,30.46,14.46,48.92,1016.13,2026.00,1675.07,1728.83,1978.47,600.31,591.70,44.91,0000 0000 0000 0000 000000
2017-04-08 08:01:12,0.23,7.02,0.00,24.93,27.25,30.44,14.34,48.92,1016.13,2026.00,1673.41,1727.63,1977.02,599.87,591.68,44.96,0000 0000 0000 0000 000000
2017-04-08 08:06:14,0.13,7.03,0.00,24.82,27.24,30.43,14.35,48.97,1016.13,2026.00,1672.02,1726.81,1975.92,599.91,592.01,45.01,0000 0000 0000 0000 000000
2017-04-08 08:11:15,0.12,7.03,0.00,25.09,27.22,30.46,14.34,48.84,1016.14,2026.01,1670.97,1726.01,1974.99,599.98,591.54,45.06,0000 0000 0000 0000 000000
2017-04-08 08:16:16,0.15,7.04,0.00,25.31,27.22,30.46,14.36,48.86,1016.14,2026.00,1669.90,1725.16,1973.99,599.92,591.18,45.11,0000 0000 0000 0000 000000
2017-04-08 08:21:17,0.18,7.05,0.00,25.14,27.22,30.43,14.32,48.84,1016.13,2026.00,1668.56,1724.25,1972.90,599.93,591.43,45.16,0000 0000 0000 0000 000000
2017-04-08 08:26:18,0.14,7.06,0.00,25.06,27.22,30.42,14.35,48.83,1016.14,2026.00,1667.38,1723.38,1971.93,600.09,591.66,45.21,0000 0000 0000 0000 000000
2017-04-08 08:31:20,0.11,7.06,0.00,25.27,27.22,30.46,14.35,48.88,1016.15,2026.00,1666.41,1722.75,1971.07,599.90,591.07,45.26,0000 0000 0000 0000 000000
2017-04-08 08:36:21,0.12,7.07,0.00,25.40,27.22,30.45,14.41,48.85,1016.27,2026.00,1665.48,1722.02,1970.27,600.21,591.22,45.31,0000 0000 0000 0000 000000
2017-04-08 08:41:22,0.14,7.08,0.00,25.21,27.22,30.42,14.30,48.86,1016.53,2026.00,1664.43,1721.20,1969.35,599.71,591.39,45.36,0000 0000 0000 0000 000000
2017-04-08 08:46:24,0.15,7.08,0.00,25.04,27.20,30.42,14.34,48.73,1016.58,2026.00,1663.28,1720.29,1968.35,600.02,592.04,45.41,0000 0000 0000 0000 000000
2017-04-08 08:51:25,0.16,7.09,0.00,25.16,27.20,30.51,14.45,48.87,1016.53,2026.00,1662.02,1719.46,1967.35,600.39,592.02,45.46,0000 0000 0000 0000 000000
2017-04-08 08:56:26,0.20,7.10,0.00,25.25,27.20,30.53,14.25,48.76,1016.59,2026.00,1660.37,1718.31,1965.90,600.09,591.61,45.51,0000 0000 0000 0000 000000
2017-04-08 09:01:27,0.20,7.11,0.00,25.08,27.20,30.53,14.33,48.83,1016.59,2026.00,1658.68,1717.15,1964.63,599.83,591.65,45.56,0000 0000 0000 0000 000000
2017-04-08 09:06:29,0.15,7.12,0.00,24.82,27.20,30.48,14.30,48.88,1016.62,2026.00,1657.44,1716.24,1963.65,599.92,592.31,45.61,0000 0000 0000 0000 000000
2017-04-08 09:11:30,0.12,7.13,0.00,24.82,27.17,30.45,14.38,48.90,1016.60,2026.00,1656.19,1715.50,1962.80,600.02,592.41,45.67,0000 0000 0000 0000 000000
2017-04-08 09:16:31,0.09,7.13,0.00,24.95,27.17,30.50,14.28,48.83,1016.60,2026.00,1655.29,1714.97,1962.03,599.70,591.90,45.72,0000 0000 0000 0000 000000
2017-04-08 09:21:32,0.14,7.14,0.00,24.96,27.17,30.52,14.41,48.92,1016.60,2026.01,1654.37,1714.18,1961.22,599.92,591.93,45.77,0000 0000 0000 0000 000000
2017-04-08 09:26:34,0.13,7.14,0.00,25.11,27.16,30.48,14.40,48.74,1016.61,2026.02,1653.40,1713.54,1960.45,600.37,592.14,45.82,0000 0000 0000 0000 000000
2017-04-08 09:31:35,0.16,7.15,0.00,24.81,27.15,30.46,14.30,48.77,1016.62,2026.01,1652.00,1712.63,1959.42,599.84,592.21,45.87,0000 0000 0000 0000 000000
2017-04-08 09:36:36,0.20,7.16,0.00,24.59,27.14,30.43,14.34,48.90,1016.62,2026.03,1650.47,1711.58,1958.14,599.94,592.70,45.92,0000 0000 0000 0000 000000
2017-04-08 09:41:38,0.21,7.17,0.00,24.69,27.12,30.44,14.37,48.91,1016.62,2026.04,1648.75,1710.34,1956.73,600.27,592.90,45.97,0000 0000 0000 0000 000000
2017-04-08 09:46:39,0.20,7.18,0.00,24.88,27.12,30.44,14.30,48.84,1016.62,2026.12,1647.26,1709.18,1955.44,599.75,592.09,46.02,0000 0000 0000 0000 000000
2017-04-08 09:51:40,0.30,7.20,0.00,24.95,27.12,30.46,14.40,48.89,1016.62,2026.18,1645.16,1707.65,1953.68,600.03,592.16,46.07,0000 0000 0000 0000 000000
2017-04-08 09:56:42,0.27,7.21,0.00,24.72,27.12,30.42,14.45,48.89,1016.63,2026.21,1642.85,1705.99,1951.81,599.91,592.62,46.12,0000 0000 0000 0000 000000
2017-04-08 10:01:43,0.26,7.23,0.00,24.65,27.10,30.39,14.36,48.84,1016.63,2026.21,1640.82,1704.61,1950.14,600.06,592.84,46.17,0000 0000 0000 0000 000000
2017-04-08 10:06:44,0.22,7.24,0.00,24.86,27.10,30.39,14.33,48.84,1016.64,2026.12,1639.03,1703.08,1948.43,600.04,592.21,46.22,0000 0000 0000 0000 000000
2017-04-08 10:11:46,0.29,7.25,0.00,24.90,27.09,30.39,14.42,48.82,1016.64,2026.18,1636.91,1701.53,1946.59,600.20,592.46,46.27,0000 0000 0000 0000 000000
2017-04-08 10:16:47,0.39,7.27,0.00,24.76,27.07,30.42,14.40,48.91,1016.64,2026.32,1634.34,1699.54,1944.33,599.94,592.57,46.32,0000 0000 0000 0000 000000
2017-04-08 10:21:48,0.55,7.30,0.00,24.80,27.07,30.39,14.36,48.95,1016.65,2026.66,1630.86,1696.71,1941.17,599.84,592.35,46.37,0000 0000 0000 0000 000000
2017-04-08 10:26:50,0.56,7.33,0.00,24.96,27.06,30.37,14.38,48.94,1016.65,2026.80,1627.03,1693.39,1937.47,599.81,591.96,46.42,0000 0000 0000 0000 000000
2017-04-08 10:31:51,0.37,7.35,0.00,24.98,27.05,30.37,14.38,48.95,1016.84,2026.75,1624.21,1690.74,1934.53,600.09,592.28,46.47,0000 0000 0000 0000 000000
2017-04-08 10:36:52,0.36,7.36,0.00,24.97,27.05,30.35,14.39,48.92,1016.98,2026.38,1621.48,1688.40,1931.88,600.04,592.18,46.52,0000 0000 0000 0000 000000
2017-04-08 10:41:54,0.35,7.38,0.00,25.01,27.05,30.34,14.42,48.92,1017.08,2026.30,1618.97,1686.17,1929.35,600.02,592.41,46.58,0000 0000 0000 0000 000000
2017-04-08 10:46:55,0.30,7.40,0.00,25.05,27.03,30.33,14.42,48.86,1017.10,2026.33,1616.58,1684.33,1927.21,600.26,592.55,46.63,0000 0000 0000 0000 000000
2017-04-08 10:51:56,0.27,7.41,0.00,25.02,27.02,30.33,14.41,48.84,1017.10,2026.25,1614.57,1682.71,1925.46,599.94,592.21,46.68,0000 0000 0000 0000 000000
2017-04-08 10:56:58,0.26,7.43,0.00,25.02,27.02,30.31,14.32,48.80,1017.10,2026.28,1612.49,1681.19,1923.61,599.91,592.20,46.73,0000 0000 0000 0000 000000
2017-04-08 11:01:59,0.21,7.44,0.00,25.02,27.01,30.32,14.45,48.87,1017.10,2026.30,1610.97,1679.93,1922.28,600.20,592.58,46.78,0000 0000 0000 0000 000000
2017-04-08 11:07:00,0.31,7.45,0.00,25.03,27.00,30.34,14.43,48.82,1017.10,2026.57,1608.91,1678.59,1920.60,600.08,592.34,46.83,0000 0000 0000 0000 000000
2017-04-08 11:12:01,0.37,7.47,0.00,25.04,27.00,30.34,14.44,48.82,1017.11,2026.79,1606.33,1676.82,1918.64,600.24,592.52,46.88,0000 0000 0000 0000 000000
2017-04-08 11:17:03,0.36,7.49,0.00,24.99,26.99,30.33,14.35,48.83,1017.13,2026.86,1603.66,1674.76,1916.35,600.06,592.37,46.93,0000 0000 0000 0000 000000
2017-04-08 11:22:04,0.18,7.51,0.00,25.00,26.98,30.33,14.35,48.75,1017.14,2026.68,1602.00,1673.27,1914.57,600.17,592.56,46.98,0000 0000 0000 0000 000000
2017-04-08 11:27:05,0.22,7.52,0.00,25.00,26.97,30.35,14.33,48.71,1017.18,2026.73,1600.47,1672.08,1913.18,599.99,592.49,47.03,0000 0000 0000 0000 000000
2017-04-08 11:32:06,0.28,7.53,0.00,25.01,26.97,30.34,14.46,48.74,1017.50,2026.71,1598.66,1670.51,1911.41,600.11,592.56,47.08,0000 0000 0000 0000 000000
2017-04-08 11:37:08,0.45,7.55,0.00,24.98,26.97,30.33,14.37,48.77,1017.58,2026.68,1595.84,1667.99,1908.58,599.96,592.63,47.13,0000 0000 0000 0000 000000
2017-04-08 11:42:09,0.27,7.57,0.00,24.98,26.96,30.35,14.40,48.72,1017.59,2026.52,1593.68,1665.96,1906.43,600.22,592.79,47.18,0000 0000 0000 0000 000000
2017-04-08 11:47:10,0.16,7.58,0.00,24.98,26.95,30.34,14.39,48.72,1017.58,2026.62,1592.23,1664.92,1905.07,600.33,592.85,47.23,0000 0000 0000 0000 000000
2017-04-08 11:52:12,0.18,7.59,0.00,24.99,26.95,30.34,14.32,48.74,1017.59,2026.71,1591.06,1663.93,1903.99,600.08,592.68,47.28,0000 0000 0000 0000 000000
2017-04-08 11:57:13,0.18,7.59,0.00,24.96,26.95,30.35,14.36,48.71,1017.59,2026.50,1589.60,1662.88,1902.69,599.95,592.62,47.33,0000 0000 0000 0000 000000
2017-04-08 12:02:14,0.14,7.60,0.00,24.96,26.94,30.39,14.46,48.77,1017.59,2026.26,1588.19,1661.91,1901.50,600.14,592.79,47.39,0000 0000 0000 0000 000000
2017-04-08 12:07:16,0.17,7.61,0.00,24.91,26.92,30.36,14.25,48.63,1017.59,2026.31,1586.92,1661.00,1900.58,599.59,592.50,47.44,0000 0000 0000 0000 000000
2017-04-08 12:12:17,0.23,7.62,0.00,24.87,26.92,30.37,14.44,48.70,1017.59,2026.61,1585.63,1660.06,1899.48,600.16,592.99,47.49,0000 0000 0000 0000 000000
2017-04-08 12:17:18,0.20,7.63,0.00,24.85,26.92,30.35,14.43,48.68,1017.59,2026.79,1584.16,1659.07,1898.26,600.39,593.31,47.54,0000 0000 0000 0000 000000
2017-04-08 12:22:19,0.16,7.64,0.00,24.84,26.92,30.38,14.36,48.64,1017.59,2026.74,1582.76,1658.08,1897.16,599.93,592.93,47.59,0000 0000 0000 0000 000000
2017-04-08 12:27:20,0.20,7.65,0.00,24.86,26.90,30.39,14.35,48.61,1017.59,2026.86,1581.46,1657.12,1895.99,600.29,593.16,47.64,0000 0000 0000 0000 000000
2017-04-08 12:32:21,0.21,7.66,0.00,24.79,26.90,30.38,14.28,48.54,1017.59,2026.93,1579.86,1656.14,1894.80,599.99,593.24,47.69,0000 0000 0000 0000 000000
2017-04-08 12:37:22,0.19,7.67,0.00,24.82,26.90,30.39,14.44,48.64,1017.60,2026.94,1578.52,1655.10,1893.60,600.05,592.94,47.74,0000 0000 0000 0000 000000
2017-04-08 12:42:24,0.16,7.68,0.00,24.78,26.90,30.41,14.45,48.63,1017.60,2026.91,1577.30,1654.08,1892.53,600.10,593.19,47.79,0000 0000 0000 0000 000000
2017-04-08 12:47:25,0.21,7.69,0.00,24.79,26.90,30.42,14.39,48.60,1017.60,2026.96,1575.75,1653.04,1891.29,600.04,593.04,47.84,0000 0000 0000 0000 000000
2017-04-08 12:52:26,0.18,7.70,0.00,24.82,26.90,30.39,14.36,48.60,1017.59,2026.96,1574.29,1651.95,1889.97,599.85,592.76,47.89,0000 0000 0000 0000 000000
2017-04-08 12:57:28,0.15,7.71,0.00,24.78,26.89,30.41,14.42,48.52,1017.59,2026.98,1573.08,1651.07,1888.95,600.07,593.09,47.94,0000 0000 0000 0000 000000